TimeCST,TemperatureF,Dew PointF,Humidity,Sea Level PressureIn,VisibilityMPH,Wind Direction,Wind SpeedMPH,Gust SpeedMPH,PrecipitationIn,Events,Conditions,WindDirDegrees,DateUTC
12:15 AM,32.2,31.8,99,29.84,4.0,ESE,10.4,-,N/A,Rain,Rain,110,2013-01-11 06:15:00
12:35 AM,32.2,32.0,99,29.82,5.0,ESE,8.1,-,N/A,Rain,Rain,110,2013-01-11 06:35:00
12:55 AM,32.2,31.8,99,29.81,10.0,East,6.9,-,N/A,,Light Drizzle,100,2013-01-11 06:55:00
1:15 AM,32.0,31.8,99,29.79,10.0,East,9.2,-,N/A,,Light Drizzle,100,2013-01-11 07:15:00
1:35 AM,32.2,32.0,99,29.80,10.0,SE,5.8,-,N/A,,Overcast,130,2013-01-11 07:35:00
1:55 AM,32.2,32.0,99,29.79,2.5,ESE,6.9,-,N/A,,Light Drizzle,120,2013-01-11 07:55:00
2:15 AM,32.2,32.0,99,29.79,5.0,ESE,6.9,-,N/A,,Overcast,120,2013-01-11 08:15:00
2:35 AM,32.2,32.0,99,29.78,1.8,ESE,8.1,-,N/A,Rain,Light Rain,120,2013-01-11 08:35:00
2:55 AM,32.2,32.0,99,29.75,1.5,East,6.9,-,N/A,,Drizzle,100,2013-01-11 08:55:00
3:15 AM,32.2,32.0,99,29.75,2.0,ESE,3.5,-,N/A,,Light Drizzle,110,2013-01-11 09:15:00
3:35 AM,32.0,32.0,100,29.73,1.5,East,3.5,-,N/A,,Drizzle,100,2013-01-11 09:35:00
3:55 AM,32.0,32.0,100,29.71,1.5,ENE,3.5,-,N/A,,Light Drizzle,70,2013-01-11 09:55:00
4:15 AM,32.0,32.0,100,29.69,1.8,ENE,3.5,-,N/A,,Drizzle,60,2013-01-11 10:15:00
4:35 AM,32.0,32.0,100,29.68,1.2,East,3.5,-,N/A,,Light Drizzle,80,2013-01-11 10:35:00
4:55 AM,32.0,32.0,100,29.68,1.5,Calm,Calm,-,N/A,,Drizzle,0,2013-01-11 10:55:00
5:15 AM,32.0,32.0,100,29.68,1.2,East,3.5,-,N/A,,Drizzle,100,2013-01-11 11:15:00
5:35 AM,32.0,32.0,100,29.67,2.5,East,3.5,-,N/A,,Light Drizzle,100,2013-01-11 11:35:00
5:55 AM,32.0,32.0,100,29.67,3.0,Calm,Calm,-,N/A,,Drizzle,0,2013-01-11 11:55:00
6:15 AM,32.0,32.0,100,29.66,3.0,ESE,3.5,-,N/A,,Light Drizzle,110,2013-01-11 12:15:00
6:35 AM,32.0,32.0,100,29.67,3.0,Calm,Calm,-,N/A,Rain,Rain,0,2013-01-11 12:35:00
6:55 AM,32.0,32.0,100,29.66,2.5,Calm,Calm,-,N/A,,Drizzle,0,2013-01-11 12:55:00
7:15 AM,32.0,32.0,100,29.66,3.0,Calm,Calm,-,N/A,,Light Drizzle,0,2013-01-11 13:15:00
7:35 AM,32.0,32.0,100,29.66,2.5,Calm,Calm,-,N/A,,Overcast,0,2013-01-11 13:35:00
7:55 AM,32.0,32.0,100,29.65,2.5,ESE,3.5,-,N/A,,Overcast,110,2013-01-11 13:55:00
8:15 AM,32.0,32.0,100,29.65,2.5,ESE,3.5,-,N/A,,Overcast,110,2013-01-11 14:15:00
8:35 AM,32.0,32.0,100,29.64,2.5,Calm,Calm,-,N/A,,Overcast,0,2013-01-11 14:35:00
8:55 AM,32.2,32.2,100,29.63,2.5,ESE,5.8,-,N/A,,Overcast,120,2013-01-11 14:55:00
9:35 AM,33.4,33.3,99,29.65,3.0,Calm,Calm,-,N/A,,Overcast,0,2013-01-11 15:35:00
9:55 AM,33.3,33.1,99,29.65,1.0,Calm,Calm,-,N/A,,Overcast,0,2013-01-11 15:55:00
10:15 AM,33.8,33.8,100,29.65,0.2,Calm,Calm,-,N/A,Fog,Fog,0,2013-01-11 16:15:00
10:35 AM,34.7,34.7,100,29.64,1.0,South,4.6,-,N/A,,Overcast,190,2013-01-11 16:35:00
10:55 AM,34.2,34.2,100,29.64,0.5,SSW,5.8,-,N/A,Fog,Fog,200,2013-01-11 16:55:00
11:15 AM,34.5,34.5,100,29.63,0.2,South,4.6,-,N/A,Fog,Fog,190,2013-01-11 17:15:00
11:35 AM,34.2,34.2,100,29.62,0.2,SSW,3.5,-,N/A,Fog,Fog,200,2013-01-11 17:35:00
11:55 AM,34.5,34.5,100,29.62,0.2,SSW,4.6,-,N/A,Fog,Fog,200,2013-01-11 17:55:00
12:15 PM,34.9,34.9,100,29.61,0.5,South,3.5,-,N/A,Fog,Fog,190,2013-01-11 18:15:00
12:35 PM,35.6,35.6,100,29.60,1.2,Calm,Calm,-,N/A,,Overcast,0,2013-01-11 18:35:00
12:55 PM,35.4,35.2,99,29.62,2.5,SSW,3.5,-,N/A,,Overcast,200,2013-01-11 18:55:00
1:15 PM,35.4,35.2,99,29.63,0.2,South,6.9,-,N/A,Fog,Fog,190,2013-01-11 19:15:00
1:35 PM,35.8,35.8,100,29.62,0.2,South,6.9,-,N/A,Fog,Fog,180,2013-01-11 19:35:00
1:55 PM,35.6,35.6,100,29.62,0.2,South,5.8,-,N/A,Fog,Fog,180,2013-01-11 19:55:00
2:15 PM,36.0,36.0,100,29.62,0.2,South,6.9,-,N/A,Fog,Fog,170,2013-01-11 20:15:00
2:35 PM,36.0,36.0,100,29.61,0.2,SSE,5.8,-,N/A,Fog,Fog,160,2013-01-11 20:35:00
2:55 PM,36.3,36.3,100,29.61,0.2,South,5.8,-,N/A,Fog,Fog,170,2013-01-11 20:55:00
3:15 PM,36.5,36.5,100,29.60,0.2,SSE,5.8,-,N/A,Fog,Fog,160,2013-01-11 21:15:00
3:35 PM,36.5,36.5,100,29.60,0.2,SSE,6.9,-,N/A,Fog,Fog,150,2013-01-11 21:35:00
3:55 PM,36.5,36.5,100,29.60,0.5,SSE,5.8,-,N/A,,Light Drizzle,150,2013-01-11 21:55:00
4:15 PM,35.8,35.8,100,29.59,0.2,SE,5.8,-,N/A,Fog,Fog,130,2013-01-11 22:15:00
4:35 PM,35.6,35.6,100,29.59,0.8,SSE,5.8,-,N/A,,Overcast,160,2013-01-11 22:35:00
4:55 PM,35.8,35.8,100,29.61,1.5,South,5.8,-,N/A,,Overcast,170,2013-01-11 22:55:00
5:15 PM,35.8,35.8,100,29.61,1.5,South,6.9,-,N/A,,Overcast,170,2013-01-11 23:15:00
5:35 PM,36.0,36.0,100,29.61,0.5,SSE,5.8,-,N/A,Fog,Fog,160,2013-01-11 23:35:00
5:55 PM,35.8,35.8,100,29.60,0.5,SE,4.6,-,N/A,Fog,Fog,140,2013-01-11 23:55:00
6:15 PM,35.6,35.6,100,29.60,0.5,SSE,5.8,-,N/A,Snow,Light Snow,150,2013-01-12 00:15:00
6:35 PM,35.6,35.6,100,29.59,0.5,SE,6.9,-,N/A,Fog,Fog,140,2013-01-12 00:35:00
6:55 PM,35.8,35.8,100,29.58,0.5,SE,6.9,-,N/A,Fog,Fog,140,2013-01-12 00:55:00
7:15 PM,36.3,36.3,100,29.59,0.5,SSE,6.9,-,N/A,Fog,Fog,160,2013-01-12 01:15:00
7:35 PM,36.5,36.5,100,29.58,0.5,SSE,3.5,-,N/A,Fog,Fog,150,2013-01-12 01:35:00
7:55 PM,36.9,36.9,100,29.57,0.5,SSE,4.6,-,N/A,Fog,Fog,150,2013-01-12 01:55:00
8:15 PM,37.4,37.4,100,29.57,0.5,SSE,5.8,-,N/A,Fog,Fog,150,2013-01-12 02:15:00
8:35 PM,37.8,37.8,100,29.57,0.5,SSE,6.9,-,N/A,Fog,Fog,160,2013-01-12 02:35:00
8:55 PM,37.9,37.9,100,29.55,0.5,SSE,8.1,-,N/A,Fog,Fog,150,2013-01-12 02:55:00
9:15 PM,38.5,38.5,100,29.56,0.5,South,5.8,-,N/A,Fog,Fog,170,2013-01-12 03:15:00
9:35 PM,38.5,38.5,100,29.55,0.5,SSE,5.8,-,N/A,Fog,Fog,160,2013-01-12 03:35:00
9:55 PM,38.7,38.7,100,29.54,0.5,SSE,5.8,-,N/A,Fog,Fog,160,2013-01-12 03:55:00
10:15 PM,39.0,39.0,100,29.53,0.8,SSE,5.8,-,N/A,,Overcast,160,2013-01-12 04:15:00
10:35 PM,39.7,39.7,100,29.53,1.2,South,10.4,-,N/A,,Overcast,170,2013-01-12 04:35:00
11:15 PM,39.9,39.9,100,29.51,0.5,South,8.1,-,N/A,Fog,Fog,170,2013-01-12 05:15:00
11:35 PM,39.9,39.9,100,29.51,1.2,South,10.4,-,N/A,,Overcast,180,2013-01-12 05:35:00
11:55 PM,39.2,39.2,100,29.51,1.0,South,10.4,-,N/A,,Overcast,190,2013-01-12 05:55:00